owner,sensor,date,latitude,longitude,vertical_datum,wind_speed,wind_to_direction,wind_speed_of_gust,qcFlag 
TABS,ioos:station:wmo:42045:1,2005-09-01T00:09:00Z,26.2168,-96.4998,4.0,4.092004399,153.4352214,6.64,'11111222,11111222,11111222' 
TABS,ioos:station:wmo:42045:1,2005-09-01T00:39:00Z,26.2168,-96.4998,4.0,4.299418565,151.8258816,6.8,'11111222,11111222,11111222' 
TABS,ioos:station:wmo:42045:1,2005-09-01T01:09:00Z,26.2168,-96.4998,4.0,4.722679324,153.0554263,7.22,'11111222,11111222,11111222' 
TABS,ioos:station:wmo:42045:1,2005-09-01T01:39:00Z,26.2168,-96.4998,4.0,4.94171023,153.4352214,7.58,'11111222,11111222,11111222' 
TABS,ioos:station:wmo:42045:1,2005-09-01T02:09:00Z,26.2168,-96.4998,4.0,4.870831551,158.4391297,7.1,'11111222,11111222,11111222' 
TABS,ioos:station:wmo:42045:1,2005-09-01T02:39:00Z,26.2168,-96.4998,4.0,4.337568443,167.2135389,6.78,'11111222,11111222,11111222' 
TABS,ioos:station:wmo:42045:1,2005-09-01T03:09:00Z,26.2168,-96.4998,4.0,3.669945504,171.5389421,6.31,'11111222,11111222,11111222' 
TABS,ioos:station:wmo:42045:1,2005-09-01T03:39:00Z,26.2168,-96.4998,4.0,3.860828927,178.8129059,6.68,'11111222,11111222,11111222' 
TABS,ioos:station:wmo:42045:1,2005-09-01T04:09:00Z,26.2168,-96.4998,4.0,4.95146443,167.2831666,8.51,'11111222,11111222,11111222' 
TABS,ioos:station:wmo:42045:1,2005-09-01T04:39:00Z,26.2168,-96.4998,4.0,4.231902645,174.1683845,7.25,'11111222,11111222,11111222' 
TABS,ioos:station:wmo:42045:1,2005-09-01T05:09:00Z,26.2168,-96.4998,4.0,4.711061452,178.7839251,7.56,'11111222,11111222,11111222' 
TABS,ioos:station:wmo:42045:1,2005-09-01T05:39:00Z,26.2168,-96.4998,4.0,4.590010893,180.1250374,6.85,'11111222,11111222,11111222' 
TABS,ioos:station:wmo:42045:1,2005-09-01T06:09:00Z,26.2168,-96.4998,4.0,4.624824321,184.5889401,7.13,'11111222,11111222,11111222' 
TABS,ioos:station:wmo:42045:1,2005-09-01T06:39:00Z,26.2168,-96.4998,4.0,4.223387266,187.2093447,6.54,'11111222,11111222,11111222' 
TABS,ioos:station:wmo:42045:1,2005-09-01T07:09:00Z,26.2168,-96.4998,4.0,4.223387266,187.2093447,6.58,'11111222,11111222,11111222' 
TABS,ioos:station:wmo:42045:1,2005-09-01T07:39:00Z,26.2168,-96.4998,4.0,3.7727046,198.8673467,6.14,'11111222,11111222,11111222' 
TABS,ioos:station:wmo:42045:1,2005-09-01T08:09:00Z,26.2168,-96.4998,4.0,3.220248438,216.1583113,5.38,'11111222,11111222,11111222' 
TABS,ioos:station:wmo:42045:1,2005-09-01T08:39:00Z,26.2168,-96.4998,4.0,2.667170786,220.4383079,4.73,'11111222,11111222,11111222' 
TABS,ioos:station:wmo:42045:1,2005-09-01T09:09:00Z,26.2168,-96.4998,4.0,2.441823089,222.5105581,5.77,'11111222,11111222,11111222' 
TABS,ioos:station:wmo:42045:1,2005-09-01T09:39:00Z,26.2168,-96.4998,4.0,3.644077387,246.0375671,5.14,'11111222,11111222,11111222' 
TABS,ioos:station:wmo:42045:1,2005-09-01T10:09:00Z,26.2168,-96.4998,4.0,1.794798039,262.6374247,3.46,'11111222,11111222,11111222' 
TABS,ioos:station:wmo:42045:1,2005-09-01T10:39:00Z,26.2168,-96.4998,4.0,2.134595981,266.2394981,3.84,'11111222,11111222,11111222' 
TABS,ioos:station:wmo:42045:1,2005-09-01T11:09:00Z,26.2168,-96.4998,4.0,1.626929624,292.7823525,3.27,'11111222,11111222,11111222' 
TABS,ioos:station:wmo:42045:1,2005-09-01T11:39:00Z,26.2168,-96.4998,4.0,2.536710468,335.0511799,3.69,'11111222,11111222,11111222' 
TABS,ioos:station:wmo:42045:1,2005-09-01T12:09:00Z,26.2168,-96.4998,4.0,2.737078735,333.9965045,4.03,'11111222,11111222,11111222' 
TABS,ioos:station:wmo:42045:1,2005-09-01T12:39:00Z,26.2168,-96.4998,4.0,2.700833205,347.8161614,4.34,'11111222,11111222,11111222' 
TABS,ioos:station:wmo:42045:1,2005-09-01T13:09:00Z,26.2168,-96.4998,4.0,2.822357171,347.9334179,4.18,'11111222,11111222,11111222' 
TABS,ioos:station:wmo:42045:1,2005-09-01T13:39:00Z,26.2168,-96.4998,4.0,2.908332856,355.6615329,4.26,'11111222,11111222,11111222' 
TABS,ioos:station:wmo:42045:1,2005-09-01T14:09:00Z,26.2168,-96.4998,4.0,3.380236678,8.849027319,4.67,'11111222,11111222,11111222' 
TABS,ioos:station:wmo:42045:1,2005-09-01T14:39:00Z,26.2168,-96.4998,4.0,4.305031939,13.8423255,6.6,'11111222,11111222,11111222' 
TABS,ioos:station:wmo:42045:1,2005-09-01T15:09:00Z,26.2168,-96.4998,4.0,3.710525569,11.18856331,4.92,'11111222,11111222,11111222' 
TABS,ioos:station:wmo:42045:1,2005-09-01T15:39:00Z,26.2168,-96.4998,4.0,3.245997535,15.36324032,4.89,'11111222,11111222,11111222' 
TABS,ioos:station:wmo:42045:1,2005-09-01T16:09:00Z,26.2168,-96.4998,4.0,3.269388322,14.16351254,4.5,'11111222,11111222,11111222' 
TABS,ioos:station:wmo:42045:1,2005-09-01T16:39:00Z,26.2168,-96.4998,4.0,3.65016438,10.41692864,5.05,'11111222,11111222,11111222' 
TABS,ioos:station:wmo:42045:1,2005-09-01T17:09:00Z,26.2168,-96.4998,4.0,2.916247589,11.27116454,4.57,'11111222,11111222,11111222' 
TABS,ioos:station:wmo:42045:1,2005-09-01T17:39:00Z,26.2168,-96.4998,4.0,1.639908534,353.6981955,4.36,'11111222,11111222,11111222' 
TABS,ioos:station:wmo:42045:1,2005-09-01T18:09:00Z,26.2168,-96.4998,4.0,1.655294536,154.9833755,4.29,'11111222,11111222,11111222' 
TABS,ioos:station:wmo:42045:1,2005-09-01T18:39:00Z,26.2168,-96.4998,4.0,2.678843034,148.7430813,5.24,'11111222,11111222,11111222' 
TABS,ioos:station:wmo:42045:1,2005-09-01T19:09:00Z,26.2168,-96.4998,4.0,3.160775221,144.3993988,5.36,'11111222,11111222,11111222' 
TABS,ioos:station:wmo:42045:1,2005-09-01T19:39:00Z,26.2168,-96.4998,4.0,2.987339954,132.2869126,5.67,'11111222,11111222,11111222' 
TABS,ioos:station:wmo:42045:1,2005-09-01T20:09:00Z,26.2168,-96.4998,4.0,3.224530974,121.8173814,5.43,'11111222,11111222,11111222' 
TABS,ioos:station:wmo:42045:1,2005-09-01T20:39:00Z,26.2168,-96.4998,4.0,3.797959979,125.0294358,6.15,'11111222,11111222,11111222' 
TABS,ioos:station:wmo:42045:1,2005-09-01T21:09:00Z,26.2168,-96.4998,4.0,4.16606529,124.338868,6.33,'11111222,11111222,11111222' 
TABS,ioos:station:wmo:42045:1,2005-09-01T21:39:00Z,26.2168,-96.4998,4.0,4.141207553,139.3089705,6.24,'11111222,11111222,11111222' 
TABS,ioos:station:wmo:42045:1,2005-09-01T22:09:00Z,26.2168,-96.4998,4.0,4.226547054,140.4724432,6.47,'11111222,11111222,11111222' 
TABS,ioos:station:wmo:42045:1,2005-09-01T22:39:00Z,26.2168,-96.4998,4.0,4.700861623,141.1311075,6.66,'11111222,11111222,11111222' 
TABS,ioos:station:wmo:42045:1,2005-09-01T23:09:00Z,26.2168,-96.4998,4.0,4.455692988,149.5216973,7.91,'11111222,11111222,11111222' 
TABS,ioos:station:wmo:42045:1,2005-09-01T23:39:00Z,26.2168,-96.4998,4.0,4.792128963,109.758753,6.91,'11111222,11111222,11111222' 
TABS,ioos:station:wmo:42045:1,2005-09-02T00:09:00Z,26.2168,-96.4998,4.0,4.644136088,137.7930115,6.84,'11111222,11111222,11111222' 
TABS,ioos:station:wmo:42045:1,2005-09-02T00:39:00Z,26.2168,-96.4998,4.0,4.425403936,151.5241445,8.68,'11111222,11111222,11111222' 
TABS,ioos:station:wmo:42045:1,2005-09-02T01:09:00Z,26.2168,-96.4998,4.0,2.408526521,194.6710901,4.59,'11111222,11111222,11111222' 
TABS,ioos:station:wmo:42045:1,2005-09-02T01:39:00Z,26.2168,-96.4998,4.0,1.554670383,156.8984573,5.16,'11111222,11111222,11111222' 
TABS,ioos:station:wmo:42045:1,2005-09-02T02:09:00Z,26.2168,-96.4998,4.0,2.220720604,136.0950037,5.75,'11111222,11111222,11111222' 
TABS,ioos:station:wmo:42045:1,2005-09-02T02:39:00Z,26.2168,-96.4998,4.0,3.051376738,165.1897815,5.69,'11111222,11111222,11111222' 
TABS,ioos:station:wmo:42045:1,2005-09-02T03:09:00Z,26.2168,-96.4998,4.0,3.567211796,211.2393523,5.25,'11111222,11111222,11111222' 
TABS,ioos:station:wmo:42045:1,2005-09-02T03:39:00Z,26.2168,-96.4998,4.0,4.792963593,200.1364668,7.47,'11111222,11111222,11111222' 
TABS,ioos:station:wmo:42045:1,2005-09-02T04:09:00Z,26.2168,-96.4998,4.0,4.163868394,187.3129521,5.99,'11111222,11111222,11111222' 
TABS,ioos:station:wmo:42045:1,2005-09-02T04:39:00Z,26.2168,-96.4998,4.0,4.667590385,168.8828941,6.67,'11111222,11111222,11111222' 
TABS,ioos:station:wmo:42045:1,2005-09-02T05:09:00Z,26.2168,-96.4998,4.0,5.493568967,165.5592691,7.99,'11111222,11111222,11111222' 
TABS,ioos:station:wmo:42045:1,2005-09-02T05:39:00Z,26.2168,-96.4998,4.0,5.293203189,167.1192092,8.25,'11111222,11111222,11111222' 
TABS,ioos:station:wmo:42045:1,2005-09-02T06:09:00Z,26.2168,-96.4998,4.0,4.239858488,172.1376832,7.04,'11111222,11111222,11111222' 
TABS,ioos:station:wmo:42045:1,2005-09-02T06:39:00Z,26.2168,-96.4998,4.0,4.193864566,182.4600861,6.53,'11111222,11111222,11111222' 
TABS,ioos:station:wmo:42045:1,2005-09-02T07:09:00Z,26.2168,-96.4998,4.0,3.163558123,182.7179005,6.11,'11111222,11111222,11111222' 
TABS,ioos:station:wmo:42045:1,2005-09-02T07:39:00Z,26.2168,-96.4998,4.0,2.641968963,187.3942018,5.44,'11111222,11111222,11111222' 
TABS,ioos:station:wmo:42045:1,2005-09-02T08:09:00Z,26.2168,-96.4998,4.0,1.57632484,234.2933921,4.05,'11111222,11111222,11111222' 
TABS,ioos:station:wmo:42045:1,2005-09-02T08:39:00Z,26.2168,-96.4998,4.0,1.464923206,237.8288581,3.34,'11111222,11111222,11111222' 
TABS,ioos:station:wmo:42045:1,2005-09-02T09:09:00Z,26.2168,-96.4998,4.0,1.186802427,290.7255104,2.78,'11111222,11111222,11111222' 
TABS,ioos:station:wmo:42045:1,2005-09-02T09:39:00Z,26.2168,-96.4998,4.0,0.61204575,274.6858889,2.7,'11111222,11111222,11111222' 
TABS,ioos:station:wmo:42045:1,2005-09-02T10:09:00Z,26.2168,-96.4998,4.0,0.486621002,260.5376999,2.06,'11111222,11111222,11111222' 
TABS,ioos:station:wmo:42045:1,2005-09-02T10:39:00Z,26.2168,-96.4998,4.0,0.794040301,328.9123569,2.49,'11111222,11111222,11111222' 
TABS,ioos:station:wmo:42045:1,2005-09-02T11:09:00Z,26.2168,-96.4998,4.0,2.508884214,333.2305388,4.64,'11111222,11111222,11111222' 
TABS,ioos:station:wmo:42045:1,2005-09-02T11:39:00Z,26.2168,-96.4998,4.0,0.670671305,92.56418513,4.39,'11111222,11111222,11111222' 
TABS,ioos:station:wmo:42045:1,2005-09-02T12:09:00Z,26.2168,-96.4998,4.0,2.032166332,322.3969045,3.75,'11111222,11111222,11111222' 
TABS,ioos:station:wmo:42045:1,2005-09-02T12:39:00Z,26.2168,-96.4998,4.0,4.732071428,300.195358,7.75,'11111222,11111222,11111222' 
TABS,ioos:station:wmo:42045:1,2005-09-02T13:09:00Z,26.2168,-96.4998,4.0,4.044119187,241.9775822,11.82,'11111222,11111222,11111222' 
TABS,ioos:station:wmo:42045:1,2005-09-02T13:39:00Z,26.2168,-96.4998,4.0,5.645148359,219.7537079,9.74,'11111222,11111222,11111222' 
TABS,ioos:station:wmo:42045:1,2005-09-02T14:09:00Z,26.2168,-96.4998,4.0,1.016710382,140.9884501,4.25,'11111222,11111222,11111222' 
TABS,ioos:station:wmo:42045:1,2005-09-02T14:39:00Z,26.2168,-96.4998,4.0,1.893066296,28.73095709,4.54,'11111222,11111222,11111222' 
TABS,ioos:station:wmo:42045:1,2005-09-02T15:09:00Z,26.2168,-96.4998,4.0,2.262211308,2.533342505,3.89,'11111222,11111222,11111222' 
TABS,ioos:station:wmo:42045:1,2005-09-02T15:39:00Z,26.2168,-96.4998,4.0,4.118252056,352.1845143,6.02,'11111222,11111222,11111222' 
TABS,ioos:station:wmo:42045:1,2005-09-02T16:09:00Z,26.2168,-96.4998,4.0,3.63352446,357.4759952,5.41,'11111222,11111222,11111222' 
TABS,ioos:station:wmo:42045:1,2005-09-02T16:39:00Z,26.2168,-96.4998,4.0,5.543978716,2.170606808,7.98,'11111222,11111222,11111222' 
TABS,ioos:station:wmo:42045:1,2005-09-02T17:09:00Z,26.2168,-96.4998,4.0,5.777508113,234.4393487,10.93,'11111222,11111222,11111222' 
TABS,ioos:station:wmo:42045:1,2005-09-02T17:39:00Z,26.2168,-96.4998,4.0,6.88410488,345.0147948,8.65,'11111222,11111222,11111222' 
TABS,ioos:station:wmo:42045:1,2005-09-02T18:09:00Z,26.2168,-96.4998,4.0,5.917110781,357.1905813,7.93,'11111222,11111222,11111222' 
TABS,ioos:station:wmo:42045:1,2005-09-02T18:39:00Z,26.2168,-96.4998,4.0,6.090402286,359.3412479,7.68,'11111222,11144222,11111222' 
TABS,ioos:station:wmo:42045:1,2005-09-02T19:09:00Z,26.2168,-96.4998,4.0,6.095900262,347.8788024,8.06,'11111222,11111222,11111222' 
TABS,ioos:station:wmo:42045:1,2005-09-02T19:39:00Z,26.2168,-96.4998,4.0,7.62,359.9997895,9.88,'11111222,11144222,11111222' 
TABS,ioos:station:wmo:42045:1,2005-09-02T20:09:00Z,26.2168,-96.4998,4.0,7.905947129,17.97633987,9.87,'11111222,11111222,11111222' 
TABS,ioos:station:wmo:42045:1,2005-09-02T20:39:00Z,26.2168,-96.4998,4.0,6.346061771,52.87696783,11.15,'11111222,11111222,11111222' 
TABS,ioos:station:wmo:42045:1,2005-09-02T21:09:00Z,26.2168,-96.4998,4.0,4.719883473,104.4782645,7.63,'11111222,11111222,11111222' 
TABS,ioos:station:wmo:42045:1,2005-09-02T21:39:00Z,26.2168,-96.4998,4.0,5.354484102,99.56827012,9.47,'11111222,11111222,11111222' 
TABS,ioos:station:wmo:42045:1,2005-09-02T22:09:00Z,26.2168,-96.4998,4.0,5.480191602,94.92033561,9.36,'11111222,11111222,11111222' 
TABS,ioos:station:wmo:42045:1,2005-09-02T22:39:00Z,26.2168,-96.4998,4.0,5.920785421,101.101566,9.25,'11111222,11111222,11111222' 
TABS,ioos:station:wmo:42045:1,2005-09-02T23:09:00Z,26.2168,-96.4998,4.0,6.391439587,101.1872619,10.18,'11111222,11111222,11111222' 
TABS,ioos:station:wmo:42045:1,2005-09-02T23:39:00Z,26.2168,-96.4998,4.0,6.242539547,94.87076134,10.08,'11111222,11111222,11111222' 
TABS,ioos:station:wmo:42045:1,2005-09-03T00:09:00Z,26.2168,-96.4998,4.0,6.066836078,95.3914941,8.61,'11111222,11111222,11111222' 
TABS,ioos:station:wmo:42045:1,2005-09-03T00:39:00Z,26.2168,-96.4998,4.0,6.253199181,88.16674386,9.25,'11111222,11111222,11111222' 
TABS,ioos:station:wmo:42045:1,2005-09-03T01:09:00Z,26.2168,-96.4998,4.0,5.919189134,96.59714379,8.86,'11111222,11111222,11111222' 
TABS,ioos:station:wmo:42045:1,2005-09-03T01:39:00Z,26.2168,-96.4998,4.0,5.229168194,102.2558557,8.9,'11111222,11111222,11111222' 
TABS,ioos:station:wmo:42045:1,2005-09-03T02:09:00Z,26.2168,-96.4998,4.0,5.167794501,101.7234573,7.79,'11111222,11111222,11111222' 
TABS,ioos:station:wmo:42045:1,2005-09-03T02:39:00Z,26.2168,-96.4998,4.0,5.096076922,110.9248737,9.24,'11111222,11111222,11111222' 
TABS,ioos:station:wmo:42045:1,2005-09-03T03:09:00Z,26.2168,-96.4998,4.0,4.880184423,125.1558683,7.62,'11111222,11111222,11111222' 
TABS,ioos:station:wmo:42045:1,2005-09-03T03:39:00Z,26.2168,-96.4998,4.0,4.619718606,125.3073348,7.08,'11111222,11111222,11111222' 
TABS,ioos:station:wmo:42045:1,2005-09-03T04:09:00Z,26.2168,-96.4998,4.0,3.949936708,132.3325556,6.8,'11111222,11111222,11111222' 
TABS,ioos:station:wmo:42045:1,2005-09-03T04:39:00Z,26.2168,-96.4998,4.0,4.847803626,140.860579,7.84,'11111222,11111222,11111222' 
TABS,ioos:station:wmo:42045:1,2005-09-03T05:09:00Z,26.2168,-96.4998,4.0,4.873048327,146.212392,7.67,'11111222,11111222,11111222' 
TABS,ioos:station:wmo:42045:1,2005-09-03T05:39:00Z,26.2168,-96.4998,4.0,5.161782638,154.5273804,7.34,'11111222,11111222,11111222' 
TABS,ioos:station:wmo:42045:1,2005-09-03T06:09:00Z,26.2168,-96.4998,4.0,4.258227331,164.3320867,7.17,'11111222,11111222,11111222' 
TABS,ioos:station:wmo:42045:1,2005-09-03T06:39:00Z,26.2168,-96.4998,4.0,3.09,180.0002105,5.91,'11111222,11111222,11111222' 
TABS,ioos:station:wmo:42045:1,2005-09-03T07:09:00Z,26.2168,-96.4998,4.0,1.820137357,188.5309561,5.72,'11111222,11111222,11111222' 
TABS,ioos:station:wmo:42045:1,2005-09-03T07:39:00Z,26.2168,-96.4998,4.0,1.375681649,214.0367412,3.68,'11111222,11111222,11111222' 
TABS,ioos:station:wmo:42045:1,2005-09-03T08:09:00Z,26.2168,-96.4998,4.0,0.88141931,245.1795167,2.37,'11111222,11111222,11111222' 
TABS,ioos:station:wmo:42045:1,2005-09-03T08:39:00Z,26.2168,-96.4998,4.0,1.257815567,276.3904804,2.61,'11111222,11111222,11111222' 
TABS,ioos:station:wmo:42045:1,2005-09-03T09:09:00Z,26.2168,-96.4998,4.0,1.578131807,275.8189573,2.95,'11111222,11111222,11111222' 
TABS,ioos:station:wmo:42045:1,2005-09-03T09:39:00Z,26.2168,-96.4998,4.0,2.762191159,290.3374979,3.71,'11111222,11111222,11111222' 
TABS,ioos:station:wmo:42045:1,2005-09-03T10:09:00Z,26.2168,-96.4998,4.0,3.766616519,284.2944636,4.69,'11111222,11111222,11111222' 
TABS,ioos:station:wmo:42045:1,2005-09-03T10:39:00Z,26.2168,-96.4998,4.0,3.052212312,245.6182451,6.46,'11111222,11111222,11111222' 
TABS,ioos:station:wmo:42045:1,2005-09-03T11:09:00Z,26.2168,-96.4998,4.0,3.3245902,280.3973092,4.53,'11111222,11111222,11111222' 
TABS,ioos:station:wmo:42045:1,2005-09-03T11:39:00Z,26.2168,-96.4998,4.0,3.290136775,286.7826049,4.66,'11111222,11111222,11111222' 
TABS,ioos:station:wmo:42045:1,2005-09-03T12:09:00Z,26.2168,-96.4998,4.0,3.391120759,299.8915084,4.43,'11111222,11111222,11111222' 
TABS,ioos:station:wmo:42045:1,2005-09-03T12:39:00Z,26.2168,-96.4998,4.0,3.953492127,313.8725768,5.18,'11111222,11111222,11111222' 
TABS,ioos:station:wmo:42045:1,2005-09-03T13:09:00Z,26.2168,-96.4998,4.0,4.351091817,320.9698968,5.66,'11111222,11111222,11111222' 
TABS,ioos:station:wmo:42045:1,2005-09-03T13:39:00Z,26.2168,-96.4998,4.0,4.761774879,319.8553792,6.41,'11111222,11111222,11111222' 
TABS,ioos:station:wmo:42045:1,2005-09-03T14:09:00Z,26.2168,-96.4998,4.0,4.737393798,309.6041698,5.98,'11111222,11111222,11111222' 
TABS,ioos:station:wmo:42045:1,2005-09-03T14:39:00Z,26.2168,-96.4998,4.0,5.133819241,330.0888638,6.38,'11111222,11111222,11111222' 
TABS,ioos:station:wmo:42045:1,2005-09-03T15:09:00Z,26.2168,-96.4998,4.0,5.365258614,336.4927628,6.62,'11111222,11111222,11111222' 
TABS,ioos:station:wmo:42045:1,2005-09-03T15:39:00Z,26.2168,-96.4998,4.0,5.715610204,343.8478866,7.08,'11111222,11111222,11111222' 
TABS,ioos:station:wmo:42045:1,2005-09-03T16:09:00Z,26.2168,-96.4998,4.0,5.831654997,340.8813456,7.44,'11111222,11111222,11111222' 
TABS,ioos:station:wmo:42045:1,2005-09-03T16:39:00Z,26.2168,-96.4998,4.0,6.727949167,342.8845783,7.85,'11111222,11111222,11111222' 
TABS,ioos:station:wmo:42045:1,2005-09-03T17:09:00Z,26.2168,-96.4998,4.0,6.894200461,347.0924111,8.35,'11111222,11111222,11111222' 
TABS,ioos:station:wmo:42045:1,2005-09-03T17:39:00Z,26.2168,-96.4998,4.0,5.553098234,337.2212422,7.73,'11111222,11111222,11111222' 
TABS,ioos:station:wmo:42045:1,2005-09-03T18:09:00Z,26.2168,-96.4998,4.0,4.929462445,50.43221148,6.36,'11111222,11111222,11111222' 
TABS,ioos:station:wmo:42045:1,2005-09-03T18:39:00Z,26.2168,-96.4998,4.0,4.81639907,53.86733696,6.15,'11111222,11111222,11111222' 
TABS,ioos:station:wmo:42045:1,2005-09-03T19:09:00Z,26.2168,-96.4998,4.0,5.050564325,56.46690912,6.88,'11111222,11111222,11111222' 
TABS,ioos:station:wmo:42045:1,2005-09-03T19:39:00Z,26.2168,-96.4998,4.0,4.680480745,69.35761704,6.97,'11111222,11111222,11111222' 
TABS,ioos:station:wmo:42045:1,2005-09-03T20:09:00Z,26.2168,-96.4998,4.0,4.757520363,58.58150499,7.78,'11111222,11111222,11111222' 
TABS,ioos:station:wmo:42045:1,2005-09-03T20:39:00Z,26.2168,-96.4998,4.0,4.886685994,61.38918632,6.97,'11111222,11111222,11111222' 
TABS,ioos:station:wmo:42045:1,2005-09-03T21:09:00Z,26.2168,-96.4998,4.0,5.197547499,141.0133876,9.57,'11111222,11111222,11111222' 
TABS,ioos:station:wmo:42045:1,2005-09-03T21:39:00Z,26.2168,-96.4998,4.0,2.940068026,180.3899707,5.46,'11111222,11111222,11111222' 
TABS,ioos:station:wmo:42045:1,2005-09-03T22:09:00Z,26.2168,-96.4998,4.0,4.023555641,221.5745238,6.45,'11111222,11111222,11111222' 
TABS,ioos:station:wmo:42045:1,2005-09-03T22:39:00Z,26.2168,-96.4998,4.0,3.228374204,236.1131198,4.55,'11111222,11111222,11111222' 
TABS,ioos:station:wmo:42045:1,2005-09-03T23:09:00Z,26.2168,-96.4998,4.0,2.281775624,230.8696919,4.15,'11111222,11111222,11111222' 
TABS,ioos:station:wmo:42045:1,2005-09-03T23:39:00Z,26.2168,-96.4998,4.0,0.656201189,262.1168791,2.21,'11111222,11111222,11111222' 
TABS,ioos:station:wmo:42045:1,2005-09-04T00:09:00Z,26.2168,-96.4998,4.0,1.532644773,319.7635253,3.25,'11111222,11111222,11111222' 
TABS,ioos:station:wmo:42045:1,2005-09-04T00:39:00Z,26.2168,-96.4998,4.0,4.805132672,96.93315406,7.33,'11111222,11111222,11111222' 
TABS,ioos:station:wmo:42045:1,2005-09-04T01:09:00Z,26.2168,-96.4998,4.0,5.163816418,96.56115312,8.96,'11111222,11111222,11111222' 
TABS,ioos:station:wmo:42045:1,2005-09-04T01:39:00Z,26.2168,-96.4998,4.0,5.27539572,103.4834494,7.5,'11111222,11111222,11111222' 
TABS,ioos:station:wmo:42045:1,2005-09-04T02:09:00Z,26.2168,-96.4998,4.0,5.940387193,109.7774711,9.26,'11111222,11111222,11111222' 
TABS,ioos:station:wmo:42045:1,2005-09-04T02:39:00Z,26.2168,-96.4998,4.0,5.102019208,126.7130122,9.58,'11111222,11111222,11111222' 
TABS,ioos:station:wmo:42045:1,2005-09-04T03:09:00Z,26.2168,-96.4998,4.0,5.551117005,124.9500809,9.93,'11111222,11111222,11111222' 
TABS,ioos:station:wmo:42045:1,2005-09-04T03:39:00Z,26.2168,-96.4998,4.0,5.634980035,130.1053281,9.13,'11111222,11111222,11111222' 
TABS,ioos:station:wmo:42045:1,2005-09-04T04:09:00Z,26.2168,-96.4998,4.0,5.663152832,131.0625218,9.57,'11111222,11111222,11111222' 
TABS,ioos:station:wmo:42045:1,2005-09-04T04:39:00Z,26.2168,-96.4998,4.0,4.346814926,132.2030787,9.35,'11111222,11111222,11111222' 
TABS,ioos:station:wmo:42045:1,2005-09-04T05:09:00Z,26.2168,-96.4998,4.0,4.361387394,130.6301188,8.34,'11111222,11111222,11111222' 
TABS,ioos:station:wmo:42045:1,2005-09-04T05:39:00Z,26.2168,-96.4998,4.0,3.352431953,133.7917261,8.27,'11111222,11111222,11111222' 
TABS,ioos:station:wmo:42045:1,2005-09-04T06:09:00Z,26.2168,-96.4998,4.0,1.979520144,130.287675,6.49,'11111222,11111222,11111222' 
TABS,ioos:station:wmo:42045:1,2005-09-04T06:39:00Z,26.2168,-96.4998,4.0,1.170683561,91.95848377,3.25,'11111222,11111222,11111222' 
TABS,ioos:station:wmo:42045:1,2005-09-04T07:09:00Z,26.2168,-96.4998,4.0,0.79397733,130.9147085,3.17,'11111222,11111222,11111222' 
TABS,ioos:station:wmo:42045:1,2005-09-04T07:39:00Z,26.2168,-96.4998,4.0,0.188679623,327.9944812,2.91,'11111222,11111222,11111222' 
TABS,ioos:station:wmo:42045:1,2005-09-04T08:09:00Z,26.2168,-96.4998,4.0,0.572450871,19.38425989,4.07,'11111222,11111222,11111222' 
TABS,ioos:station:wmo:42045:1,2005-09-04T08:39:00Z,26.2168,-96.4998,4.0,0.604152299,335.5558919,3.14,'11111222,11111222,11111222' 
TABS,ioos:station:wmo:42045:1,2005-09-04T09:09:00Z,26.2168,-96.4998,4.0,0.72201108,306.5523873,2.62,'11111222,11111222,11111222' 
TABS,ioos:station:wmo:42045:1,2005-09-04T09:39:00Z,26.2168,-96.4998,4.0,0.762364742,274.5139779,2.49,'11111222,11111222,11111222' 
TABS,ioos:station:wmo:42045:1,2005-09-04T10:09:00Z,26.2168,-96.4998,4.0,1.522005256,294.0388781,3.12,'11111222,11111222,11111222' 
TABS,ioos:station:wmo:42045:1,2005-09-04T10:39:00Z,26.2168,-96.4998,4.0,3.255825548,117.0376161,11.6,'11111222,11111222,11111222' 
TABS,ioos:station:wmo:42045:1,2005-09-04T11:09:00Z,26.2168,-96.4998,4.0,2.392007525,170.6166672,6.93,'11111222,11111222,11111222' 
TABS,ioos:station:wmo:42045:1,2005-09-04T11:39:00Z,26.2168,-96.4998,4.0,2.838097955,263.5260592,4.31,'11111222,11111222,11111222' 
TABS,ioos:station:wmo:42045:1,2005-09-04T12:09:00Z,26.2168,-96.4998,4.0,3.33880218,291.8013585,4.54,'11111222,11111222,11111222' 
TABS,ioos:station:wmo:42045:1,2005-09-04T12:39:00Z,26.2168,-96.4998,4.0,4.033472449,302.5473798,5.27,'11111222,11111222,11111222' 
TABS,ioos:station:wmo:42045:1,2005-09-04T13:09:00Z,26.2168,-96.4998,4.0,4.002624139,333.1147164,6.0,'11111222,11111222,11111222' 
TABS,ioos:station:wmo:42045:1,2005-09-04T13:39:00Z,26.2168,-96.4998,4.0,4.224973373,342.0795015,6.0,'11111222,11111222,11111222' 
TABS,ioos:station:wmo:42045:1,2005-09-04T14:09:00Z,26.2168,-96.4998,4.0,4.94792886,326.3740336,6.8,'11111222,11111222,11111222' 
TABS,ioos:station:wmo:42045:1,2005-09-04T14:39:00Z,26.2168,-96.4998,4.0,3.83575286,3.138183711,5.95,'11111222,11111222,11111222' 
TABS,ioos:station:wmo:42045:1,2005-09-04T15:09:00Z,26.2168,-96.4998,4.0,3.668950804,7.20226808,6.3,'11111222,11111222,11111222' 
TABS,ioos:station:wmo:42045:1,2005-09-04T15:39:00Z,26.2168,-96.4998,4.0,3.536000566,11.08725103,5.95,'11111222,11111222,11111222' 
TABS,ioos:station:wmo:42045:1,2005-09-04T16:09:00Z,26.2168,-96.4998,4.0,4.161586236,11.3636971,6.22,'11111222,11111222,11111222' 
TABS,ioos:station:wmo:42045:1,2005-09-04T16:39:00Z,26.2168,-96.4998,4.0,3.792532136,19.72470445,6.19,'11111222,11111222,11111222' 
TABS,ioos:station:wmo:42045:1,2005-09-04T17:09:00Z,26.2168,-96.4998,4.0,3.457426789,15.6037002,6.05,'11111222,11111222,11111222' 
TABS,ioos:station:wmo:42045:1,2005-09-04T17:39:00Z,26.2168,-96.4998,4.0,1.861961331,28.90488513,5.46,'11111222,11111222,11111222' 
TABS,ioos:station:wmo:42045:1,2005-09-04T18:09:00Z,26.2168,-96.4998,4.0,4.029950372,119.4278085,6.77,'11111222,11111222,11111222' 
TABS,ioos:station:wmo:42045:1,2005-09-04T18:39:00Z,26.2168,-96.4998,4.0,3.933764101,122.4380245,6.83,'11111222,11111222,11111222' 